Galveston, TX

7:53 PM CDT on August 16, 2017 (GMT -0500)
Scholes International At Galveston

Weather History for KGLS - April, 2014

Change the Weather History Date:

Saturday, April 12, 2014

  Actual Average Record
Temperature  
Mean Temperature 72 °F 69 °F  
Max Temperature 76 °F 75 °F 85 °F (1943)
Min Temperature 67 °F 63 °F 46 °F (1940)
Degree Days  
Heating Degree Days 0 1  
Month to date heating degree days 3 12  
Since 1 July heating degree days 1408 1003  
Cooling Degree Days 7 5  
Month to date cooling degree days 46 50  
Year to date cooling degree days 74 120  
Growing Degree Days 20 (Base 50)    
Moisture  
Dew Point 67 °F    
Average Humidity 90    
Maximum Humidity 100    
Minimum Humidity 79    
Precipitation  
Precipitation 0.00 in 0.11 in 2.78 in (1901)
Month to date precipitation 0.04 1.29  
Year to date precipitation 4.91 11.22  
Snow  
Snow 0.00 in - - ()
Month to date snowfall 0.0  
Since 1 July snowfall T 0.0  
Snow Depth 0.00 in    
Sea Level Pressure  
Sea Level Pressure 30.00 in    
Wind  
Wind Speed 15 mph (SE)    
Max Wind Speed 23 mph    
Max Gust Speed 27 mph    
Visibility 9 miles    
Events      
T = Trace of Precipitation, MM = Missing Value Source: NWS Daily Summary

Daily Weather History Graph

Daily Weather History Graph

Search for Another Location

Airport or City:

Trip Planner

Search our weather history database for the weather conditions in past years. The results will help you decide how hot, cold, wet, or windy it might be!

Date:

Astronomy

Apr. 12, 2014 Rise Set
Actual Time 6:56 AM CDT 7:44 PM CDT
Civil Twilight 6:32 AM CDT 8:08 PM CDT
Nautical Twilight 6:03 AM CDT 8:37 PM CDT
Astronomical Twilight 5:34 AM CDT 9:06 PM CDT
Moon 5:33 PM CDT (4/12) 5:11 AM CDT (4/12)
Length of Visible Light 13h 36m
Length of Day
12h 47m
Waxing Gibbous, 93% of the Moon is Illuminated
Apr 12
Waxing Gibbous
Apr 15
Full
Apr 22
Last Quarter
Apr 29
New
May 6
First Quarter

Hourly Weather History & Observations

Time (CDT) Temp. Dew Point Humidity Pressure Visibility Wind Dir Wind Speed Gust Speed Precip Events Conditions
12:52 AM 68.0 °F 66.0 °F 93% 30.05 in 10.0 mi SSE 13.8 mph - N/A   Partly Cloudy
1:52 AM 66.9 °F 66.0 °F 97% 30.04 in 10.0 mi SSE 11.5 mph - N/A   Clear
2:52 AM 66.9 °F 66.9 °F 100% 30.02 in 10.0 mi SSE 11.5 mph - N/A   Clear
3:52 AM 66.9 °F 66.9 °F 100% 30.02 in 10.0 mi SSE 10.4 mph - N/A   Partly Cloudy
4:32 AM 66.9 °F 66.9 °F 100% 30.01 in 10.0 mi SSE 9.2 mph - N/A   Mostly Cloudy
4:52 AM 66.9 °F 66.9 °F 100% 30.01 in 10.0 mi SSE 8.1 mph - N/A   Overcast
5:36 AM 66.9 °F 66.9 °F 100% 30.02 in 9.0 mi SSE 8.1 mph - N/A   Overcast
5:52 AM 66.9 °F 66.9 °F 100% 30.01 in 9.0 mi SSE 8.1 mph - N/A   Overcast
6:52 AM 66.9 °F 66.9 °F 100% 30.02 in 5.0 mi SSE 8.1 mph - N/A   Mostly Cloudy
7:52 AM 68.0 °F 68.0 °F 100% 30.03 in 5.0 mi SE 10.4 mph - N/A   Mostly Cloudy
8:52 AM 70.0 °F 69.1 °F 97% 30.04 in 6.0 mi SE 12.7 mph - N/A   Scattered Clouds
9:52 AM 71.1 °F 69.1 °F 93% 30.06 in 6.0 mi SE 15.0 mph - N/A   Overcast
10:52 AM 73.0 °F 69.1 °F 87% 30.09 in 8.0 mi SE 13.8 mph - N/A   Mostly Cloudy
11:52 AM 73.9 °F 69.1 °F 85% 30.07 in 10.0 mi SE 17.3 mph - N/A   Partly Cloudy
12:52 PM 75.0 °F 68.0 °F 79% 30.06 in 10.0 mi SE 19.6 mph - N/A   Clear
1:52 PM 75.9 °F 69.1 °F 79% 30.04 in 10.0 mi SE 16.1 mph - N/A   Clear
2:52 PM 73.9 °F 68.0 °F 82% 30.01 in 10.0 mi SE 19.6 mph - N/A   Clear
3:52 PM 73.9 °F 68.0 °F 82% 29.99 in 10.0 mi SE 17.3 mph - N/A   Clear
4:52 PM 73.9 °F 66.9 °F 79% 29.97 in 10.0 mi SE 19.6 mph - N/A   Clear
5:52 PM 72.0 °F 66.0 °F 81% 29.95 in 10.0 mi SE 18.4 mph - N/A   Clear
6:52 PM 71.1 °F 66.0 °F 84% 29.95 in 10.0 mi SE 16.1 mph - N/A   Clear
7:52 PM 69.1 °F 66.0 °F 90% 29.95 in 10.0 mi SE 17.3 mph - N/A   Clear
8:52 PM 69.1 °F 66.9 °F 93% 29.96 in 10.0 mi SE 17.3 mph - N/A   Clear
9:19 PM 69.1 °F 66.9 °F 93% 29.96 in 10.0 mi SE 16.1 mph - N/A   Mostly Cloudy
9:45 PM 69.1 °F 68.0 °F 96% 29.96 in 10.0 mi SE 16.1 mph - N/A   Overcast
9:52 PM 69.1 °F 68.0 °F 96% 29.96 in 10.0 mi SE 17.3 mph 24.2 mph N/A   Overcast
10:32 PM 70.0 °F 68.0 °F 93% 29.97 in 10.0 mi SSE 18.4 mph - N/A   Overcast
10:45 PM 70.0 °F 68.0 °F 93% 29.96 in 10.0 mi SE 18.4 mph 25.3 mph N/A   Overcast
10:52 PM 70.0 °F 68.0 °F 93% 29.96 in 10.0 mi SSE 21.9 mph 25.3 mph N/A   Overcast
11:52 PM 69.1 °F 68.0 °F 96% 29.95 in 10.0 mi SSE 17.3 mph - N/A   Overcast